Home   Weather   Khartoum   Past weeks
Flag for Sudan

Past Weather in Khartoum, Sudan — Yesterday and Last 2 Weeks

Now
95 °F

Clear.


Feels Like: 94 °F
Forecast: 100 / 80 °F
Wind: 3 mph from Northeast

Location: Khartoum Airport

Current Time: Oct 16, 2019 at 7:39:24 pm

Latest Report: Oct 16, 2019 at 7:00 pm


Visibility: 10 mi

Pressure: 29.74 "Hg

Humidity: 28%

Dew Point: 57 °F

Location of KhartoumLocation

Past Weather in Khartoum — Graph

°F

Khartoum Temperature Yesterday

Maximum temperature yesterday: 99 °F (at 1:30 pm)
Minimum temperature yesterday: 82 °F (at 5:00 am)
Average temperature yesterday: 91 °F

High & Low Weather Summary for the Past Weeks

 TemperatureHumidityPressure
High102 °F (Oct 9, 10:00 pm)83% (Oct 2, 4:00 am)29.98 "Hg (Oct 2, 4:00 am)
Low72 °F (Oct 8, 8:00 am)19% (Oct 10, 5:00 pm)29.71 "Hg (Oct 10, 4:00 pm)
Average88 °F49%29.83 "Hg
* Reported Oct 1 6:00 pm — Oct 16 6:00 pm, Khartoum. Weather by CustomWeather, © 2019

Note: Actual official high and low records may vary slightly from our data, if they occured in-between our weather recording intervals... More about our weather records

Advertising

Khartoum Weather History for the Previous 24 Hours

Scroll right to see more
 ConditionsComfort  
Time TempWeatherWind HumidityBarometerVisibility
6:00 pm
Wed, Oct 16
95 °FClear.No wind26%29.74 "Hg10 mi
5:30 pm97 °FPassing clouds.6 mph25%29.71 "HgN/A
5:00 pm99 °FPassing clouds.7 mph24%29.71 "HgN/A
4:30 pm100 °FPassing clouds.9 mph22%29.71 "HgN/A
3:30 pm100 °FPassing clouds.8 mph22%29.71 "HgN/A
3:00 pm100 °FPassing clouds.8 mph22%29.71 "HgN/A
2:00 pm100 °FPassing clouds.7 mph22%29.74 "HgN/A
1:30 pm100 °FSunny.5 mph22%29.74 "Hg10 mi
1:00 pm99 °FSunny.6 mph27%29.77 "Hg10 mi
12:30 pm99 °FSunny.6 mph27%29.77 "Hg10 mi
12:00 pm99 °FSunny.7 mph27%29.80 "Hg10 mi
11:30 am97 °FSunny.7 mph27%29.80 "Hg10 mi
11:00 am97 °FSunny.6 mph27%29.83 "Hg10 mi
10:30 am95 °FSunny.10 mph30%29.83 "Hg10 mi
10:00 am95 °FSunny.5 mph30%29.83 "Hg10 mi
9:30 am95 °FSunny.9 mph32%29.86 "Hg10 mi
9:00 am93 °FSunny.8 mph36%29.86 "Hg10 mi
8:30 am90 °FSunny.7 mph41%29.86 "Hg10 mi
8:00 am90 °FHot.5 mph41%29.86 "Hg5 mi
7:30 am88 °FWarm.5 mph43%29.83 "Hg4 mi
7:00 am88 °FWarm.1 mph43%29.83 "Hg4 mi
6:30 am84 °FWarm.No wind55%29.83 "Hg4 mi
6:00 am82 °FSunny.2 mph58%29.83 "Hg10 mi
5:30 am82 °FClear.No wind51%29.83 "Hg10 mi
5:00 am82 °FClear.No wind51%N/A10 mi
4:30 am82 °FClear.2 mph51%29.80 "Hg10 mi
4:00 am84 °FClear.2 mph48%29.77 "Hg10 mi
3:30 am82 °FClear.2 mph51%29.80 "Hg10 mi
3:00 am84 °FClear.1 mph48%29.80 "Hg10 mi
2:30 am84 °FClear.No wind48%29.80 "Hg10 mi
2:00 am86 °FClear.2 mph46%29.80 "Hg10 mi
1:30 am88 °FClear.2 mph43%29.80 "Hg10 mi
1:00 am88 °FClear.3 mph43%29.80 "Hg10 mi
12:30 am88 °FClear.5 mph40%29.80 "Hg10 mi
12:00 am88 °FWarm.7 mph40%29.83 "Hg5 mi
11:00 pm
Tue, Oct 15
88 °FClear.No wind40%29.83 "Hg10 mi
10:30 pm90 °FClear.5 mph38%29.83 "Hg10 mi
10:00 pm90 °FClear.5 mph36%29.83 "Hg10 mi
9:30 pm90 °FClear.No wind38%29.83 "Hg10 mi
9:00 pm91 °FClear.No wind36%29.83 "Hg10 mi
8:30 pm91 °FClear.6 mph36%29.83 "Hg10 mi
8:00 pm93 °FPassing clouds.5 mph36%29.80 "HgN/A
7:30 pm93 °FPassing clouds.2 mph32%29.80 "HgN/A
7:00 pm93 °FPassing clouds.No wind32%29.77 "HgN/A
Weather by CustomWeather, © 2019

See weather overview